www.pogodaiklimat.ru

Погода и климат >> Архив погоды >> Южная Африка >> Виулсдриф


ПОГОДА в Виулсдрифе

  • Прогноз погоды в Виулсдрифе
  • Монитор погоды в Виулсдрифе

АРХИВ ПОГОДЫ в Виулсдрифе

Время (UTC), дата Ветер
(напр.,м/с)
 
Видим.   Явления Облачность Т
(С)
Тd
(С)
f
(%)
Тe
(С)
Тes
(С)
Комфортность P
(гПа)
Po
(гПа)
Тmin
(С)
Tmax
(С)
R
(мм)
R24
(мм)
S
(см)
03 13.05 СЗ 2 н/о н/о +23.0 +3.2 27 +23 +23 комфорт 993.3 +23.0 +38.1
06 13.05 ЮЗ 1 н/о н/о +21.7 +6.9 38 +22 +22 комфорт 994.2 +20.1
09 13.05 В 1 н/о н/о +31.4 +2.0 15 +29 +29 жарко 995.0 +20.1 +31.4
12 13.05 ЮВ 1 н/о н/о +38.1 +0.2 9 +34 +34 очень
жарко
991.8 +20.1 +38.6
15 13.05 С 3 н/о н/о +36.9 +0.8 10 +33 +33 жарко 990.4 +36.9 +39.0
18 13.05 СЗ 2 н/о н/о +30.6 -0.5 13 +27 +27 жарко 991.3 +30.6 +39.0
21 13.05 З 1 н/о н/о +27.2 +0.3 17 +25 +25 комфорт 992.8 +25.5 +39.0
00 14.05 СЗ 2 н/о н/о +25.7 -3.5 14 +23 +23 комфорт 992.9 +25.5 +39.0
03 14.05 Ю 2 н/о н/о +22.9 -2.4 18 +21 +21 комфорт 992.2 +22.7 +39.0
06 14.05 Ю 1 н/о н/о +22.2 -0.9 21 +21 +21 комфорт 993.6 +21.2
09 14.05 В 1 н/о н/о +31.7 +0.3 13 +29 +29 жарко 993.7 +21.2 +31.7
12 14.05 С 2 н/о н/о +35.6 -0.2 10 +32 +32 жарко 990.1 +21.2 +36.4
15 14.05 Ю 4 н/о н/о +35.5 -0.2 10 +32 +32 жарко 989.6 +35.4 +38.6
18 14.05 ЮВ 4 н/о н/о +30.7 -2.7 11 +27 +27 жарко 992.2 +30.7 +38.6
21 14.05 штиль 0 н/о н/о +26.4 -1.1 16 +24 +24 комфорт 993.5 +26.1 +38.6
00 15.05 СЗ 1 н/о н/о +21.9 +1.1 25 +21 +21 комфорт 993.8 +21.6 +38.6
03 15.05 З 1 н/о н/о +19.9 -1.0 24 +21 +21 комфорт 994.1 +19.2 +38.6
06 15.05 З 1 н/о н/о +19.0 +1.1 30 +20 +20 995.4 +18.2
09 15.05 С 1 н/о н/о +27.9 +2.4 19 +26 +26 жарко 996.0 +18.2 +28.3
12 15.05 С 2 н/о н/о +32.5 -0.1 12 +29 +29 жарко 993.3 +18.2 +32.8
15 15.05 СЗ 1 н/о н/о +34.4 +0.1 11 +31 +31 жарко 991.9 +32.1 +35.0
18 15.05 Ю 4 н/о н/о +28.7 +3.8 20 +27 +27 жарко 993.1 +28.7 +35.0
21 15.05 ЮЗ 1 н/о н/о +24.2 +4.7 28 +24 +24 комфорт 994.4 +24.2 +35.0
00 16.05 штиль 0 н/о н/о +21.3 +2.7 29 +21 +21 комфорт 994.8 +20.7 +35.0
03 16.05 СЗ 2 н/о н/о +19.1 +3.8 36 +20 +20 995.0 +18.6 +35.0
06 16.05 СЗ 2 н/о н/о +18.0 +4.3 40 +19 +19 995.0 +16.8
09 16.05 штиль 0 н/о н/о +28.0 +1.7 18 +26 +26 жарко 995.8 +16.8 +28.0
12 16.05 Ю 1 н/о н/о +32.9 +0.1 12 +30 +30 жарко 992.1 +16.8 +33.0
15 16.05 штиль 0 н/о н/о +34.4 -1.1 10 +31 +31 жарко 990.2 +33.1 +35.9
18 16.05 Ю 1 н/о н/о +28.5 -2.2 13 +26 +26 жарко 990.2 +27.3 +35.9
21 16.05 СЗ 3 н/о н/о +24.6 +0.4 20 +23 +23 комфорт 990.9 +24.6 +35.9
00 17.05 ЮВ 1 н/о н/о +22.1 -1.0 21 +21 +21 комфорт 991.4 +21.7 +35.9
03 17.05 СЗ 1 н/о н/о +19.9 +2.4 31 +21 +21 комфорт 990.7 +19.8 +35.9
06 17.05 штиль 0 н/о н/о +19.3 +4.7 38 +20 +20 992.7 +18.4
09 17.05 С 2 н/о н/о +25.7 +2.6 22 +24 +24 комфорт 993.6 +18.4 +26.0
12 17.05 Ю 2 н/о н/о +29.3 -3.8 11 +26 +26 жарко 991.6 +18.4 +29.4
15 17.05 Ю 7 н/о н/о +25.2 +2.8 23 +24 +24 комфорт 992.3 +25.2 +29.4
18 17.05 Ю 3 н/о н/о +20.4 +6.5 40 +22 +22 комфорт 994.6 +20.4 +29.4
21 17.05 Ю 3 н/о н/о +18.3 +7.8 50 +19 +19 996.0 +18.2 +29.4
00 18.05 З 1 н/о н/о +16.1 +8.1 59 +17 +17 996.3 +15.7 +29.4
03 18.05 Ю 2 н/о н/о +15.2 +7.8 61 +15 +15 995.9 +15.2 +29.4
06 18.05 СЗ 2 н/о н/о +13.8 +7.3 65 +14 +14 996.8 +13.1
09 18.05 ЮЗ 1 н/о н/о +22.4 +6.3 35 +23 +23 комфорт 996.2 +13.1 +22.8
12 18.05 СВ 2 н/о н/о +26.2 +3.7 23 +25 +25 комфорт 993.1 +13.1 +26.2
15 18.05 ЮЗ 1 н/о н/о +29.0 0.0 15 +26 +26 жарко 990.6 +26.2 +29.9
18 18.05 С 1 н/о н/о +24.0 +3.0 25 +23 +23 комфорт 991.5 +24.0 +29.9
21 18.05 ЮЗ 1 н/о н/о +20.1 +4.7 36 +22 +22 комфорт 991.8 +20.1 +29.9
00 19.05 СЗ 2 н/о н/о +17.9 +1.9 34 +19 +19 991.9 +17.9 +29.9
03 19.05 СЗ 1 н/о н/о +15.1 +4.2 48 +16 +16 991.6 +15.1 +29.9
06 19.05 СЗ 2 н/о н/о +15.1 +2.3 42 +15 +15 992.6 +13.7
09 19.05 СВ 1 н/о н/о +24.3 +3.2 25 +24 +24 комфорт 994.3 +13.7 +25.0
12 19.05 С 2 н/о н/о +28.4 +2.1 18 +26 +26 жарко 991.6 +13.7 +29.5
15 19.05 ЮВ 3 н/о н/о +28.2 -3.5 12 +25 +25 комфорт 991.0 +28.2 +31.9
18 19.05 Ю 3 н/о н/о +22.8 -1.8 19 +22 +22 комфорт 993.6 +22.5 +31.9
21 19.05 Ю 2 н/о н/о +20.3 +1.8 29 +21 +21 комфорт 994.8 +19.8 +31.9
00 20.05 СЗ 2 н/о н/о +16.1 -0.9 31 +17 +17 995.5 +16.1 +31.9

 

Местоположение метеостанции Виулсдриф (Южная Африка): широта -28.70 долгота 17.60 высота над уровнем моря 168 м.

В архиве по умолчанию представлена погода в Виулсдрифе за последнюю неделю. Архивные данные за месяц целиком и за предыдущие месяцы, начиная с января 2011 года, Вы можете получить, выбрав интересующий диапазон дат из раскрывающегося списка и нажав кнопку "Ввод!".


*Определитесь, кто Вы:
робот инопланетянин человек

Внимание! Время в таблицах - всемирное. Для получения местного времени необходимо прибавить поправку, которая равна 2 ч.

Смотрите также архив погоды в соседних городах и на ближайших метеорологических станциях:

Погода в Порт Ноллоз (Южная Африка) (92 км)
Погода в Александер-Бее (Южная Африка) (106 км)
Погода в Спрингбоке (Южная Африка) (111 км)
Погода в Коингнаасе (Южная Африка) (170 км)
Погода в Пофаддере (Южная Африка) (180 км)
Погода в Портервилле (Южная Африка) (198 км)
Погода в Китмансхупе (Намибия) (247 км)
Погода на Ауграбисе (Южная Африка) (268 км)
Погода в Ниеувоудтвилле (Южная Африка) (327 км)
Погода в Людерице (Намибия) (337 км)

Пояснения к столбцам:

Ветер - указаны скорость ветра в м/с - средняя за 10 мин, порывы в срок и между сроками (в фигурных скобках) и направление, откуда дует ветер: С - северный, СВ - северо-восточный, В - восточный, ЮВ - юго-восточный, Ю - южный, ЮЗ - юго-западный, З - западный, СЗ - северо-западный.
Видимость - горизонтальная дальность видимости в метрах или километрах. При видимости от 1 до 10 км при отсутствии осадков обычно наблюдается дымка, при ухудшении видимости до 1 км и менее - туман. В сухую погоду видимость может ухудшаться дымом, пылью или мглою.
Явления - указаны атмосферные явления, наблюдавшиеся в срок или в последний час перед сроком; фигурными скобками обозначены явления, наблюдавшиеся между сроками (за 1-3 часа до срока); квадратными скобками обозначены град или гололедные отложения с указанием их диаметра в мм.
Облачность - указаны через наклонную черту общая и нижняя облачность в баллах и высота нижней границы облаков в метрах; квадратными скобками обозначены формы облаков: Ci - перистые, Cs - перисто-слоистые, Cc - перисто-кучевые, Ac - высококучевые, As - высокослоистые, Sc - слоисто-кучевые, Ns - слоисто-дождевые, Cu - кучевые, Cb - кучево-дождевые. Подробнее классификацию облаков см. в Атласе облаков (PDF).
T - Температура воздуха - температура, измеренная на высоте 2 м над землей.
Td - Температура точки росы - температура, при понижении до которой содержащийся в воздухе водяной пар достигнет насыщения.
f - Относительная влажность воздуха - влажноcть воздуха, измеренная на высоте 2 м над землей.
Te - Эффективная температура - температура, которую ощущает одетый по сезону человек в тени. Характеристика душности погоды. При расчете учитывается влияние влажности воздуха и скорости ветра на теплоощущения человека.
Tes - Эффективная температура на солнце - температура, которую ощущает человек, с поправкой на солнечный нагрев. Характеристика знойности погоды. Зависит от высоты солнца над горизонтом, облачности и скорости ветра. Ночью, в пасмурную погоду, а также при ветре 12 м/с и более поправка равна нулю.
P - Атмосферное давление - приведенное к уровню моря атмосферное давление.
Po - Атмосферное давление - измеренное на уровне метеостанции атмосферное давление.
Tmin - Минимальная температура - минимум температуры воздуха на высоте 2 м над землей.
Tmax - Максимальная температура - максимум температуры воздуха на высоте 2 м над землей.
R - Количество осадков - Количество выпавших осадков за период времени, мм. При наведении курсора мыши на число - период времени, за который выпало указанное количество осадков.
R24 - Количество осадков - Количество выпавших осадков за 24 часа, мм.
S - Снежный покров - Высота снежного покрова, см. При наведении курсора мыши на число - состояние снежного покрова и степень покрытия местности в баллах.